Regional Weather Roundup
Issued by NWS Glasgow, MT

Home | Current Version | Previous Version | Text Only | Print | Product List | Glossary On
Versions: 1 2 3 4 5 6 7 8 9 10 11 12 13 14 15 16 17 18 19 20 21 22 23 24 25 26 27 28 29 30 31 32 33 34 35 36 37 38 39 40 41 42 43 44 45 46 47 48 49 50
000
ASUS45 KGGW 290215
RWRGGW
HOURLY WEATHER ROUNDUP FOR NORTHEAST MONTANA
NATIONAL WEATHER SERVICE GLASGOW MONTANA
700 PM MST FRI NOV 28 2014

NOTE: "FAIR" INDICATES FEW OR NO CLOUDS BELOW 12,000 FEET WITH NO
SIGNIFICANT WEATHER AND/OR OBSTRUCTIONS TO VISISBILITY.

NORTHEAST MONTANA


CITY           SKY/WX    TMP DP  RH WIND       PRES   REMARKS
GLASGOW        CLOUDY    24  19  81 N23       29.48R
PLENTYWOOD       N/A     21  19  92 N5          N/A
WOLF POINT     CLOUDY    30  26  85 N6        29.45R
JORDAN           N/A     31  29  92 N13       29.44R
WINNETT          N/A     30  28  92 NE9G18      N/A
SIDNEY         CLOUDY    30  28  93 CALM      29.41R
GLENDIVE       CLOUDY    39  32  75 SW8       29.39F
MALTA            N/A     17  12  80 NE12G24     N/A

FORT PECK REPORTS


CITY           SKY/WX    TMP DP  RH WIND       PRES   REMARKS
FORT PECK        N/A     30  29  96 NW15G24     N/A
THE PINES        N/A     29  27  92 N10         N/A

SOUTHEAST MONTANA


CITY           SKY/WX    TMP DP  RH WIND       PRES   REMARKS
BILLINGS       CLEAR     51  22  31 SW13      29.43F
MILES CITY     MOCLDY    46  32  58 S10       29.39F
BAKER          CLOUDY    50  30  46 SW15      29.42F
LIVINGSTON     MOCLDY    54  19  25 SW35G44   29.43F

CENTRAL MONTANA


CITY           SKY/WX    TMP DP  RH WIND       PRES   REMARKS
HAVRE          CLOUDY     4  -2  76 NW15G23   29.64R WCI -14
LEWISTOWN      CLOUDY    20  18  92 W14       29.43R
GREAT FALLS    CLOUDY     7   4  87 N14       29.54R WCI -10
CUT BANK       LGT SNOW  -4  -9  79 N20       29.58S WCI -27
HELENA         CLOUDY    50  28  42 SW22G28   29.42F
BUTTE          PTCLDY    45  17  32 SW13G24   29.48F
BOZEMAN        CLOUDY    50  20  30 W5        29.47F

WESTERN MONTANA


CITY           SKY/WX    TMP DP  RH WIND       PRES   REMARKS
MISSOULA       CLOUDY    45  34  65 E6        29.42F
KALISPELL      NOT AVBL

NORTH DAKOTA


CITY           SKY/WX    TMP DP  RH WIND       PRES   REMARKS
WILLISTON      CLOUDY    20  16  84 N9        29.43R
DICKINSON      PTCLDY    38  30  73 S9        29.39F
MINOT          MOCLDY    12   7  80 E7        29.48F
BISMARCK       CLOUDY    16  13  88 E8        29.51F

SOUTHERN SASKATCHEWAN


CITY           SKY/WX    TMP DP  RH WIND       PRES   REMARKS
REGINA         FLURRIES  12   9  85 SE7       29.50S
ESTEVAN        CLOUDY    12   9  85 E10       29.47  WCI  -1
SWIFT CURRENT  LGT SNOW   1   0  92 NW22G29   29.52S WCI -21



USA.gov is the U.S. government's official web portal to all federal, state and local government web resources and services.